CAPE
0 0 0 0 0 0 0 0 0 0 0 0 0 0 0 0 0 0 201 361 219 54 0 12 37 82 65 98 217 87 82 175 26 0 1 13 5 27 38 14 30 30 42 12 0 34 17 44 108 38 43 55 50 2
0 0 0 1 0 1 1 0 0 0 0 0 0 0 0 0 0 0 44 300 266 133 92 95 129 164 73 80 127 95 42 60 74 50 4 12 0 4 1 8 0 9 10 14 19 52 1 33 98 64 9 60 16 21
0 0 0 0 0 1 0 1 1 0 0 0 0 0 0 0 0 0 4 153 14 1 4 18 40 107 105 103 243 185 234 69 90 171 111 2 0 23 3 1 16 10 2 9 25 0 2 11 9 46 60 28 11 15
0 0 0 0 0 0 0 0 0 0 0 0 0 0 0 0 0 0 5 101 40 0 1 0 14 25 30 65 143 151 189 195 180 178 31 1 0 0 2 4 21 17 14 11 9 8 19 13 67 65 64 50 7 5
0 0 0 0 0 0 0 0 0 0 0 0 0 0 0 0 0 0 4 48 85 26 1 0 0 0 0 60 61 114 146 169 151 76 10 0 0 10 9 0 10 1 6 11 6 6 74 23 42 89 31 18 0 12
0 0 0 0 0 0 0 0 0 0 0 0 0 0 0 0 0 2 1 1 0 0 3 0 0 0 0 0 35 67 147 183 178 75 1 2 11 0 0 0 3 9 16 76 69 62 55 71 27 21 0 0 3 1
0 0 0 0 0 0 0 0 0 0 0 0 0 0 0 0 0 0 0 2 0 1 1 15 1 0 0 0 0 10 58 84 75 24 17 0 0 1 0 1 0 17 40 16 49 76 4 0 40 1 8 0 3 1
0 0 0 0 0 0 0 0 0 0 0 0 0 0 0 0 0 0 1 0 0 0 0 2 0 1 0 4 8 0 0 0 0 0 0 0 0 0 1 1 1 2 18 55 19 22 27 0 0 0 0 8 1 0
0 0 0 0 0 0 0 0 0 0 0 0 0 0 0 0 0 2 2 0 0 0 0 0 1 1 0 1 0 0 0 0 0 0 0 0 3 3 1 0 29 62 65 22 0 0 0 0 0 0 0 0 0 0
0 0 0 0 0 0 0 0 0 0 0 0 0 0 0 2 0 0 0 0 0 0 0 1 5 15 9 0 1 2 2 0 4 1 2 15 8 3 3 32 33 1 0 0 0 0 0 0 0 0 0 0 0 0
0 0 0 0 0 0 0 0 0 0 0 17 9 2 9 0 13 3 2 1 1 4 3 8 6 13 4 1 1 0 0 2 40 3 103 54 14 0 18 6 0 0 0 0 0 0 0 0 0 0 0 0 0 0
1 0 0 0 0 0 0 0 0 0 18 17 17 17 9 26 35 15 8 20 9 7 17 16 16 7 1 30 30 6 13 25 1 12 3 6 12 0 0 0 0 0 0 0 0 0 0 0 0 0 0 1 0 0
1 0 0 0 0 0 0 0 0 0 0 23 4 25 13 45 16 9 10 32 37 14 3 10 18 5 10 4 4 2 26 1 2 30 11 16 68 24 2 0 0 0 0 0 0 0 0 0 0 0 0 0 0 0
0 0 0 0 0 0 0 0 0 0 9 13 1 0 5 4 4 16 17 4 4 6 21 31 23 54 17 3 1 4 23 64 32 22 21 124 2 0 0 0 0 0 0 0 0 0 0 0 0 0 0 0 0 0
0 0 1 3 5 0 0 0 0 12 2 6 5 0 6 10 25 3 17 12 12 2 29 29 34 16 30 4 7 44 8 6 6 20 186 95 74 28 2 4 0 0 0 0 0 0 0 0 0 0 0 0 0 0
9 6 4 9 18 7 0 0 12 4 1 3 1 4 23 36 15 5 4 25 23 18 5 19 16 4 7 6 10 6 7 0 13 249 88 18 13 13 1 0 0 0 0 0 0 0 0 0 0 0 0 0 1 0
7 5 7 8 23 19 10 9 18 4 4 1 6 38 41 42 21 34 9 9 65 8 6 37 1 2 36 33 1 4 17 58 109 60 1 7 6 19 0 0 0 0 0 0 0 0 0 0 0 0 1 1 0 0
12 5 3 13 9 14 13 38 1 4 2 2 6 19 5 5 6 17 9 31 51 13 3 12 17 19 9 0 2 23 61 61 25 25 26 1 0 0 2 3 0 0 1 0 0 0 0 0 0 1 1 0 0 0
20 7 10 6 18 19 1 1 16 7 7 9 7 8 18 74 42 14 44 14 76 59 47 45 41 14 17 8 22 31 39 65 54 17 11 2 5 3 0 0 0 24 17 10 9 0 1 3 0 11 1 2 0 4
12 1 9 12 2 8 5 14 12 10 11 16 3 18 27 16 57 50 9 3 58 65 35 20 5 2 12 12 33 53 39 24 47 33 5 0 0 12 12 21 36 28 42 19 0 0 0 0 2 2 9 20 26 46
27 29 28 29 49 49 28 11 3 3 9 11 12 38 29 102 90 85 8 43 36 25 13 8 0 0 0 0 7 31 20 33 44 58 38 31 7 35 37 32 20 51 59 9 0 0 1 4 7 3 10 0 1 1
48 16 28 6 14 19 13 28 13 22 11 12 15 13 35 28 63 75 53 66 23 21 8 0 1 30 36 28 36 47 43 26 9 6 3 7 50 70 56 61 55 21 7 0 3 0 0 1 2 0 1 1 0 2
14 16 7 20 1 2 26 30 41 20 20 21 7 13 21 16 37 12 49 21 9 5 9 42 28 42 37 15 9 2 0 0 29 56 38 65 73 54 16 6 2 1 2 1 0 0 0 2 0 1 3 7 4 2
1 3 26 2 12 23 26 8 27 28 29 21 19 5 5 55 68 45 19 21 0 10 11 9 25 17 17 14 16 17 32 74 84 91 75 62 15 7 3 1 1 1 0 1 2 11 6 2 0 3 11 8 3 3
4 12 26 15 25 30 12 18 16 20 10 14 22 22 10 75 21 15 12 0 10 17 56 75 36 45 43 54 69 73 40 55 81 53 1 5 2 4 3 0 0 0 0 0 2 2 2 2 6 7 5 6 2 4
13 10 2 14 30 7 18 4 14 14 26 31 21 42 153 33 15 16 0 101 374 178 14 4 101 100 62 43 38 32 66 53 0 6 2 1 0 3 6 8 7 6 2 0 1 1 4 4 7 6 8 4 2 1
22 21 21 5 15 10 47 115 44 88 28 11 23 74 29 22 4 0 0 58 139 402 241 241 164 66 59 42 45 92 9 1 1 0 3 1 0 4 10 14 4 8 3 1 0 0 2 4 6 5 2 6 6 8
1 43 13 36 56 109 69 49 21 14 14 22 55 37 22 12 0 46 149 189 298 105 100 108 118 67 47 22 4 2 1 0 0 0 0 0 0 2 3 0 0 0 2 2 0 0 3 5 2 2 4 9 16 8
8 72 144 0 60 51 50 36 45 16 5 40 51 30 27 23 47 57 20 63 68 1 0 0 0 0 3 4 0 1 3 7 7 4 4 5 3 10 1 0 0 1 4 3 0 0 1 4 1 0 6 10 1 3
10 146 25 16 19 15 8 72 48 58 37 37 20 12 17 0 0 1 16 20 2 0 0 0 4 5 1 6 6 6 5 6 1 5 8 9 11 5 4 1 1 1 1 3 4 1 0 1 0 1 1 1 3 4
142 192 80 87 47 30 31 29 32 9 9 22 16 43 16 5 5 16 0 4 4 4 2 4 7 16 9 8 7 8 13 5 4 1 5 9 6 9 7 1 2 4 6 7 6 6 6 6 8 6 4 1 2 0
120 60 75 41 66 83 25 40 84 78 51 70 41 17 15 27 20 2 4 4 5 4 4 1 2 4 6 3 15 14 3 3 2 4 1 4 13 13 12 10 12 11 10 9 10 10 5 2 5 1 2 0 1 1
85 100 63 47 37 26 51 31 43 30 51 36 28 23 32 37 14 4 4 4 3 3 2 2 3 10 12 5 8 10 5 4 1 1 0 0 0 1 2 4 12 12 8 8 7 5 2 1 2 5 3 4 0 0
CIN
-0 -0 -0 -0 -0 -0 -0 -0 -0 -0 -0 -0 -0 -0 -0 -0 -0 -0 -1 -0 -1 -2 -0 -6 -7 -9 -5 -1 -1 -6 -3 -1 -6 -1 -0 -0 -1 -10 -0 -1 -12 -7 -4 -2 -0 -0 -1 -6 -4 -11 -5 -2 -4 -23
-0 -0 -0 -0 -0 -0 -0 -0 -0 -0 -0 -0 -0 -0 -0 -0 -0 -0 -0 -1 -1 -0 -0 -17 -10 -5 -5 -14 -3 -5 -8 -5 -12 -0 -0 -0 -0 -0 -20 -1 -0 -1 -7 -2 -1 -1 -1 -1 -2 -14 -27 -6 -6 -1
-0 -0 -0 -0 -0 -0 -0 -0 -0 -0 -0 -0 -0 -0 -0 -0 -0 -0 -2 -1 -7 -0 -1 -5 -30 -44 -12 -15 -3 -0 -1 -1 -1 -3 -7 -7 -0 -2 -0 -6 -0 -2 -14 -6 -4 -0 -0 -0 -0 -13 -1 -3 -2 -5
-0 -0 -0 -0 -0 -0 -0 -0 -0 -0 -0 -0 -0 -0 -0 -0 -0 -0 -0 -2 -1 -0 -0 -0 -38 -55 -55 -18 -1 -1 -0 -2 -2 -4 -5 -4 -0 -0 -3 -1 -1 -5 -2 -2 -3 -0 -0 -0 -0 -4 -3 -2 -2 -14
-0 -0 -0 -0 -0 -0 -0 -0 -0 -0 -0 -0 -0 -0 -0 -0 -0 -0 -0 -4 -3 -6 -10 -0 -0 -0 -0 -4 -3 -3 -2 -1 -4 -1 -5 -0 -1 -1 -2 -7 -3 -3 -2 -2 -1 -1 -0 -1 -1 -1 -2 -1 -2 -0
-0 -0 -0 -0 -0 -0 -0 -0 -0 -0 -0 -0 -0 -0 -0 -0 -0 -0 -0 -0 -0 -2 -30 -0 -0 -0 -0 -0 -1 -1 -1 -1 -2 -4 -0 -38 -12 -0 -0 -0 -2 -0 -0 -2 -0 -1 -4 -1 -0 -1 -9 -0 -0 -0
-0 -0 -0 -0 -0 -0 -0 -0 -0 -0 -0 -0 -0 -0 -0 -0 -0 -0 -0 -0 -0 -1 -0 -0 -0 -0 -0 -0 -0 -12 -15 -10 -4 -3 -7 -0 -0 -20 -0 -8 -0 -0 -1 -1 -5 -7 -8 -2 -0 -8 -0 -0 -0 -1
-0 -0 -0 -0 -0 -0 -0 -0 -0 -0 -0 -0 -0 -0 -0 -0 -0 -0 -0 -0 -0 -0 -0 -1 -0 -0 -0 -0 -0 -0 -0 -0 -0 -0 -0 -0 -0 -0 -14 -1 -0 -14 -1 -0 -6 -0 -1 -1 -0 -0 -0 -0 -7 -0
-0 -0 -0 -0 -0 -0 -0 -0 -0 -0 -0 -0 -0 -0 -0 -0 -0 -0 -0 -0 -0 -0 -0 -0 -0 -0 -0 -0 -0 -0 -0 -0 -0 -0 -0 -0 -2 -6 -12 -0 -1 -1 -1 -9 -3 -0 -0 -0 -0 -0 -0 -0 -0 -0
-0 -0 -0 -0 -0 -0 -0 -0 -0 -0 -0 -0 -0 -0 -0 -0 -0 -0 -0 -0 -0 -0 -0 -0 -0 -0 -0 -0 -0 -0 -0 -0 -0 -0 -0 -3 -1 -0 -4 -10 -0 -19 -0 -0 -0 -0 -0 -0 -0 -0 -0 -0 -0 -0
-3 -6 -0 -0 -0 -0 -0 -0 -0 -0 -0 -0 -0 -0 -0 -0 -0 -0 -0 -0 -0 -0 -0 -0 -0 -0 -2 -0 -0 -0 -0 -0 -0 -3 -2 -0 -4 -0 -3 -1 -0 -0 -0 -0 -0 -0 -0 -0 -0 -0 -0 -0 -0 -0
-9 -0 -0 -0 -0 -0 -0 -0 -0 -0 -2 -0 -0 -1 -1 -0 -0 -0 -0 -0 -0 -0 -0 -0 -0 -1 -0 -0 -0 -0 -1 -0 -0 -1 -0 -2 -3 -0 -0 -0 -0 -0 -0 -0 -0 -0 -0 -0 -0 -0 -0 -17 -0 -0
-21 -0 -0 -0 -0 -0 -0 -0 -0 -0 -0 -0 -0 -0 -0 -0 -0 -0 -0 -0 -0 -0 -0 -0 -0 -0 -0 -0 -0 -0 -0 -2 -0 -0 -0 -1 -3 -1 -0 -0 -0 -0 -0 -0 -0 -0 -0 -0 -0 -0 -0 -0 -0 -0
-0 -0 -0 -0 -0 -0 -0 -0 -0 -1 -3 -0 -0 -0 -0 -0 -0 -0 -0 -0 -0 -0 -0 -0 -1 -0 -0 -0 -0 -0 -0 -0 -0 -0 -1 -4 -4 -22 -0 -0 -0 -0 -0 -0 -0 -0 -0 -0 -0 -0 -0 -0 -0 -0
-5 -0 -0 -0 -1 -0 -0 -0 -0 -3 -0 -0 -0 -0 -0 -0 -0 -0 -0 -0 -0 -0 -0 -0 -0 -0 -0 -0 -0 -0 -2 -7 -14 -3 -3 -22 -9 -12 -23 -50 -0 -0 -0 -0 -0 -0 -0 -0 -0 -0 -0 -0 -0 -0
-2 -1 -0 -8 -6 -0 -0 -0 -1 -0 -0 -0 -0 -0 -0 -0 -0 -0 -0 -1 -0 -0 -0 -0 -0 -0 -0 -0 -0 -0 -2 -0 -1 -16 -19 -24 -33 -45 -13 -0 -0 -0 -0 -0 -0 -0 -0 -0 -0 -0 -0 -0 -0 -0
-4 -0 -1 -2 -2 -9 -24 -1 -4 -0 -0 -0 -0 -0 -0 -0 -0 -0 -0 -0 -0 -0 -0 -0 -0 -7 -2 -0 -1 -0 -0 -3 -9 -10 -8 -12 -14 -8 -0 -0 -2 -0 -0 -0 -0 -0 -0 -0 -0 -0 -0 -0 -0 -0
-0 -4 -4 -1 -2 -6 -4 -0 -0 -0 -0 -0 -0 -0 -0 -0 -0 -1 -0 -0 -0 -0 -0 -0 -0 -0 -0 -0 -1 -5 -7 -12 -17 -20 -12 -4 -0 -0 -1 -5 -0 -0 -1 -1 -0 -0 -0 -0 -0 -0 -0 -0 -0 -0
-0 -0 -1 -6 -1 -0 -0 -0 -0 -0 -0 -0 -0 -0 -0 -0 -1 -1 -4 -4 -0 -0 -0 -0 -0 -0 -0 -0 -2 -6 -10 -8 -2 -0 -0 -1 -3 -3 -0 -0 -0 -9 -6 -15 -13 -0 -0 -1 -0 -0 -1 -4 -2 -10
-16 -6 -6 -13 -14 -0 -0 -0 -0 -0 -0 -0 -0 -0 -0 -0 -2 -4 -2 -0 -0 -0 -0 -0 -0 -0 -1 -5 -8 -4 -4 -4 -1 -1 -0 -0 -0 -4 -4 -3 -1 -3 -3 -1 -0 -0 -0 -0 -0 -0 -1 -2 -2 -4
-2 -1 -4 -2 -0 -0 -0 -0 -0 -0 -0 -0 -0 -0 -0 -0 -0 -0 -0 -2 -0 -0 -0 -0 -0 -0 -0 -0 -4 -1 -2 -2 -1 -2 -1 -0 -18 -3 -4 -6 -6 -2 -2 -5 -0 -0 -0 -0 -0 -1 -2 -0 -0 -0
-0 -9 -0 -1 -0 -0 -0 -0 -0 -0 -0 -0 -0 -0 -0 -0 -0 -0 -0 -0 -0 -0 -15 -0 -0 -0 -0 -0 -0 -2 -4 -8 -9 -14 -4 -0 -1 -1 -3 -2 -1 -3 -3 -2 -0 -0 -0 -0 -0 -0 -0 -0 -5 -1
-5 -2 -5 -0 -0 -0 -0 -0 -0 -0 -0 -0 -0 -0 -0 -0 -0 -2 -0 -0 -0 -11 -2 -0 -1 -3 -3 -3 -6 -4 -0 -0 -5 -2 -5 -2 -1 -2 -5 -3 -2 -2 -0 -0 -0 -0 -0 -0 -0 -0 -0 -0 -0 -0
-0 -0 -0 -0 -0 -0 -0 -0 -0 -0 -0 -0 -0 -0 -0 -0 -1 -0 -0 -0 -0 -29 -14 -3 -2 -0 -19 -22 -13 -2 -5 -5 -3 -1 -2 -1 -3 -1 -2 -1 -0 -0 -0 -0 -0 -0 -1 -0 -0 -0 -0 -0 -0 -0
-0 -0 -0 -0 -0 -0 -0 -0 -0 -0 -0 -0 -0 -0 -0 -2 -0 -0 -0 -0 -51 -15 -6 -4 -13 -7 -2 -1 -1 -4 -11 -7 -1 -1 -0 -1 -0 -0 -0 -0 -0 -0 -0 -0 -0 -0 -0 -1 -0 -0 -0 -0 -0 -0
-0 -0 -0 -0 -0 -0 -0 -0 -0 -0 -1 -0 -0 -0 -2 -0 -0 -0 -0 -11 -7 -6 -19 -37 -40 -9 -5 -4 -2 -3 -7 -21 -0 -0 -0 -1 -0 -0 -0 -0 -0 -0 -0 -0 -0 -0 -0 -0 -0 -0 -0 -0 -0 -0
-0 -0 -0 -0 -0 -0 -0 -0 -3 -0 -2 -1 -0 -0 -0 -1 -1 -0 -0 -3 -2 -5 -9 -8 -7 -6 -3 -5 -10 -17 -11 -5 -2 -0 -0 -0 -0 -0 -0 -0 -0 -0 -2 -0 -0 -0 -0 -0 -0 -0 -0 -0 -1 -1
-0 -0 -0 -1 -1 -0 -0 -0 -1 -1 -0 -0 -0 -1 -2 -3 -0 -4 -9 -14 -19 -36 -33 -22 -16 -20 -5 -18 -4 -1 -1 -0 -0 -3 -0 -0 -0 -0 -1 -1 -1 -0 -0 -0 -0 -0 -0 -2 -1 -0 -0 -0 -1 -8
-1 -0 -0 -0 -1 -0 -0 -0 -0 -0 -5 -2 -1 -0 -1 -2 -13 -15 -24 -29 -39 -0 -0 -0 -0 -0 -0 -7 -8 -3 -3 -0 -0 -0 -0 -0 -0 -1 -0 -0 -0 -0 -0 -0 -0 -0 -0 -0 -0 -0 -0 -3 -0 -0
-1 -1 -2 -1 -1 -0 -0 -5 -4 -16 -12 -8 -1 -2 -1 -0 -0 -10 -16 -19 -0 -0 -0 -0 -0 -0 -0 -0 -0 -0 -5 -1 -0 -0 -0 -0 -0 -0 -0 -0 -0 -0 -0 -0 -0 -0 -0 -0 -0 -0 -0 -0 -0 -0
-0 -1 -0 -0 -0 -2 -6 -18 -28 -31 -17 -2 -5 -0 -0 -1 -10 -23 -0 -0 -0 -0 -0 -0 -0 -0 -0 -0 -0 -0 -0 -0 -0 -0 -0 -0 -0 -0 -0 -0 -0 -0 -0 -0 -0 -0 -0 -0 -0 -0 -0 -0 -0 -0
-0 -0 -0 -0 -0 -7 -30 -1 -0 -0 -0 -0 -0 -1 -0 -0 -0 -1 -0 -0 -0 -0 -0 -0 -0 -0 -0 -0 -0 -0 -0 -0 -0 -0 -0 -0 -0 -0 -0 -0 -0 -0 -0 -0 -0 -0 -0 -0 -0 -0 -0 -0 -0 -0
-0 -0 -0 -0 -0 -0 -0 -0 -0 -0 -0 -0 -0 -0 -0 -0 -1 -0 -0 -0 -0 -0 -0 -0 -0 -0 -0 -0 -0 -0 -0 -0 -0 -0 -0 -0 -0 -0 -0 -0 -0 -0 -0 -0 -0 -0 -0 -0 -0 -0 -0 -1 -0 -0
Wind_Speed
10 10 11 12 12 12 13 13 13 12 12 11 9 8 7 5 5 3 4 3 3 2 7 8 9 11 8 4 3 1 3 2 2 3 3 4 4 4 5 8 7 8 6 5 5 6 12 4 11 5 14 17 19 15
6 5 7 9 11 11 11 12 12 12 12 11 11 11 10 9 6 3 4 1 3 3 5 5 9 11 11 14 8 3 5 4 5 3 4 3 3 2 2 9 14 6 8 8 11 8 21 24 25 16 25 20 19 20
8 6 6 6 8 8 10 11 12 13 11 11 11 12 13 12 11 10 3 1 3 2 4 6 11 12 11 11 8 8 3 6 7 6 3 4 5 4 5 5 6 6 13 13 17 17 24 24 25 22 20 18 18 19
5 5 6 4 7 8 11 11 12 11 11 12 12 12 12 13 14 11 3 3 2 1 3 5 8 12 8 10 12 12 13 12 9 5 3 4 4 6 6 10 10 6 9 12 21 23 22 20 19 22 22 19 13 15
3 4 4 4 2 4 9 10 11 12 12 12 13 13 13 14 15 8 5 4 4 4 3 3 4 9 11 11 13 14 12 12 7 3 4 5 4 3 7 8 8 6 15 10 18 21 19 25 22 25 16 11 15 13
3 2 4 3 3 2 3 8 9 10 11 12 14 14 14 14 13 2 3 5 6 3 2 3 3 4 11 13 12 15 12 11 10 5 4 4 4 5 5 13 9 13 13 15 18 25 26 23 19 17 15 14 12 14
4 5 6 5 5 7 7 4 7 10 11 12 12 13 13 15 8 4 4 1 1 5 3 3 4 3 6 8 7 9 11 8 5 4 5 3 4 5 3 12 21 18 19 23 24 17 14 14 12 12 8 13 15 13
6 7 8 7 6 7 8 9 9 8 7 10 11 10 9 14 9 2 2 5 2 4 3 3 4 3 3 2 2 4 2 3 2 2 2 2 2 3 7 16 19 20 19 18 13 12 11 11 13 13 13 13 13 12
9 7 8 8 6 6 6 7 8 11 14 16 18 15 5 3 1 2 5 5 2 3 4 2 3 3 3 2 1 3 2 1 3 3 4 3 5 9 10 15 16 17 15 11 10 10 11 12 13 14 15 16 13 10
9 9 9 8 7 7 8 7 7 8 9 8 1 3 3 1 6 6 3 4 4 3 2 3 2 3 4 1 1 1 1 2 3 5 4 5 10 19 19 18 13 8 7 7 5 7 10 11 13 16 16 13 8 5
12 11 10 9 8 8 8 9 9 6 2 0 2 2 2 4 2 2 2 1 2 3 4 2 5 1 0 2 2 2 1 2 4 4 4 4 4 10 9 3 5 5 6 6 8 9 12 13 14 14 12 7 2 3
15 13 11 10 10 9 9 9 7 2 2 3 6 5 2 1 2 2 4 3 3 3 4 3 2 1 2 2 2 3 3 3 7 3 2 5 3 2 2 1 2 5 9 11 10 13 15 15 14 9 10 4 2 3
14 14 13 10 9 9 9 7 0 6 5 3 3 2 2 2 4 5 6 4 4 2 1 1 2 2 2 3 1 2 5 6 3 4 4 4 3 6 1 4 8 10 7 7 14 16 17 16 13 5 8 5 7 5
13 12 12 11 10 9 8 7 5 2 2 2 2 4 4 4 4 2 2 3 2 2 3 3 2 1 2 1 2 4 4 3 4 6 6 1 5 4 5 5 7 10 5 7 12 14 13 11 11 5 7 5 4 4
12 11 10 9 10 10 9 6 2 2 2 2 1 3 5 1 5 3 2 3 3 1 1 2 2 2 1 2 3 4 4 7 6 4 3 6 4 5 6 7 9 2 5 7 12 11 10 9 8 8 5 4 3 3
14 11 3 11 12 11 8 5 2 3 2 1 2 2 2 1 2 2 1 1 2 3 1 1 1 2 5 4 7 9 6 8 4 3 6 7 7 5 6 9 6 6 6 9 12 11 10 9 8 7 3 4 5 5
12 2 13 12 11 9 3 1 3 2 1 2 3 1 1 2 2 2 3 4 3 3 2 2 4 8 4 7 8 6 7 7 6 6 7 9 11 10 10 9 6 8 10 12 12 10 10 8 3 6 8 5 6 5
1 10 17 15 11 7 1 1 2 2 4 5 3 3 3 3 3 3 2 5 3 3 2 5 4 9 7 12 12 8 8 8 8 9 10 12 12 13 11 10 14 15 13 11 10 5 7 10 10 6 5 7 5 4
6 12 16 15 8 3 3 1 2 3 5 1 3 1 4 3 6 6 2 4 5 5 2 4 8 9 10 9 10 10 9 8 9 11 11 13 11 12 12 13 12 12 12 11 7 6 9 10 6 4 6 5 4 4
16 16 13 9 3 2 2 2 1 3 3 3 5 6 6 5 2 2 4 5 6 3 6 7 9 11 9 9 10 10 10 11 11 12 13 12 11 13 13 12 11 13 12 12 6 7 6 4 4 5 2 2 3 2
11 9 7 5 0 3 0 3 3 2 4 3 3 6 5 5 6 5 5 6 6 6 9 9 12 12 13 12 11 11 12 12 12 11 13 13 12 11 12 12 13 11 10 7 6 8 7 6 4 4 3 2 2 4
6 9 3 2 1 0 2 4 3 4 3 3 2 2 4 5 6 6 5 7 7 11 12 12 11 10 11 14 12 11 11 12 14 13 14 14 12 11 10 10 10 9 7 5 7 7 5 5 3 4 3 3 3 3
8 3 3 2 3 4 4 5 5 4 4 4 4 4 5 4 4 3 5 7 8 11 10 10 12 12 12 13 11 12 12 13 11 11 10 10 10 9 8 10 9 9 9 7 5 4 4 5 5 4 3 4 4 4
5 5 6 6 8 4 4 6 4 3 4 5 4 6 7 5 4 5 9 10 12 9 10 13 10 10 10 12 10 9 8 8 9 9 8 9 10 9 9 9 6 7 8 4 3 2 4 4 5 4 5 4 5 5
5 6 4 6 6 6 6 5 6 6 7 8 12 9 4 3 4 7 12 13 9 8 8 7 7 7 8 8 7 7 8 8 7 7 8 8 9 8 9 8 8 6 3 3 2 3 4 3 4 5 5 5 6 5
8 7 9 7 7 7 8 5 8 11 10 11 7 4 1 3 7 8 6 5 3 4 4 5 5 5 6 7 8 8 6 2 3 7 10 6 5 6 7 7 6 3 4 4 4 6 6 6 6 7 6 6 5 6
7 8 6 5 5 5 4 4 4 6 7 6 6 9 5 6 7 6 5 5 4 2 2 3 4 5 6 8 6 4 3 2 4 9 8 8 8 8 7 7 9 3 3 6 6 6 7 6 6 6 7 5 5 6
6 4 10 8 6 6 10 9 6 6 7 6 6 10 6 6 7 5 1 2 1 2 3 3 4 5 6 6 5 6 5 3 6 7 7 7 8 7 6 5 3 5 1 3 5 4 4 4 5 6 6 5 4 3
6 4 5 8 10 7 8 10 12 8 8 8 11 14 14 10 8 8 8 3 2 2 4 5 5 3 4 4 3 5 5 5 7 11 13 8 8 4 5 5 5 3 2 3 5 5 6 5 6 6 4 3 4 4
9 6 8 10 13 13 13 7 10 8 6 6 7 9 11 13 12 9 9 3 5 6 5 4 2 3 7 6 6 7 5 5 4 4 6 7 7 7 6 4 3 3 3 3 4 4 5 6 7 5 5 4 3 3
3 5 10 12 16 14 13 9 4 3 5 9 10 11 15 13 9 3 2 1 2 3 5 6 6 3 4 4 3 5 4 4 4 5 6 6 6 6 4 2 3 3 3 4 4 3 3 3 3 4 4 2 1 2
4 8 10 15 13 9 2 3 4 7 9 9 11 9 10 6 7 3 3 3 3 4 1 2 2 2 5 4 2 2 4 5 6 7 9 7 5 4 3 3 3 3 4 4 4 3 2 2 3 2 1 2 2 3
10 10 12 11 10 11 9 6 6 6 8 11 10 9 9 7 4 3 3 4 4 5 5 5 4 5 3 2 4 3 5 5 8 9 10 11 12 11 8 6 4 3 3 3 4 4 3 3 2 1 3 5 6 5
Wind_Direction
193 191 192 190 192 189 192 195 200 199 204 199 205 208 197 231 289 294 306 265 279 222 275 265 256 263 270 252 253 234 358 225 66 165 194 228 229 246 271 271 281 298 296 254 237 244 279 266 338 334 307 311 333 326
173 172 187 183 193 189 188 199 196 201 204 200 197 197 196 192 198 234 279 314 302 240 295 350 300 286 282 279 302 277 219 268 173 180 201 230 251 217 264 273 264 255 216 263 258 271 289 304 302 324 318 324 323 304
90 121 172 190 207 200 202 195 199 199 200 205 204 199 196 185 183 194 260 329 47 33 279 265 247 261 261 272 276 265 261 231 236 227 276 199 230 211 228 237 242 253 259 261 290 275 285 302 301 301 299 316 312 309
81 90 96 130 202 211 213 205 198 203 194 203 205 203 200 190 185 183 204 218 123 109 188 256 268 254 255 260 240 238 257 269 263 273 229 194 186 194 215 248 256 244 298 271 273 274 290 283 290 302 297 307 331 323
84 69 60 65 66 217 213 215 206 201 205 206 206 204 199 196 186 192 229 230 214 191 230 245 276 249 239 242 240 243 234 236 241 219 220 235 207 200 238 261 237 226 254 254 271 290 284 284 293 290 327 328 329 313
176 127 78 65 61 74 212 218 216 215 214 212 213 207 199 193 174 146 271 202 206 181 264 312 309 253 253 245 239 246 233 234 231 222 210 235 191 165 243 267 266 266 271 269 287 291 284 286 328 345 347 324 326 336
172 170 139 114 81 73 79 99 197 207 209 211 208 202 200 184 168 189 185 33 146 142 107 288 268 344 303 280 263 261 249 237 223 225 211 180 212 192 227 266 281 283 274 277 272 292 341 315 321 309 308 352 338 357
175 164 159 146 121 83 74 79 85 100 151 182 186 178 170 133 116 69 21 39 25 103 95 211 264 322 233 213 250 338 335 7 295 237 31 183 295 176 246 255 274 280 278 286 348 328 315 354 344 344 350 338 338 6
189 173 170 169 158 136 115 101 97 103 103 101 103 106 89 54 96 110 115 74 29 108 169 189 208 189 201 126 100 357 36 329 302 246 203 160 208 226 246 269 272 292 311 345 326 347 354 353 337 339 335 335 341 360
181 169 165 156 153 146 133 126 119 131 133 143 145 66 66 51 122 130 36 31 16 6 70 218 249 211 214 130 82 319 52 243 248 241 227 212 250 263 272 273 285 18 13 4 15 359 358 339 333 333 329 331 352 3
171 166 162 164 158 141 131 128 134 146 346 301 81 77 101 143 191 66 123 233 151 235 191 227 217 188 149 132 175 215 253 225 255 251 233 240 239 242 263 328 37 35 21 6 10 351 330 332 324 324 323 324 24 315
165 161 165 163 155 148 141 142 142 241 23 47 97 105 101 126 69 219 186 176 223 248 164 173 188 201 54 303 180 175 248 219 252 352 275 251 257 226 45 304 332 4 351 347 350 329 320 312 314 317 313 285 236 265
148 151 151 151 151 147 142 140 128 115 172 79 60 109 178 122 190 221 189 197 192 80 73 27 67 56 79 39 239 257 241 238 340 235 243 246 222 225 7 15 5 353 42 2 329 311 304 301 305 303 295 287 283 250
137 142 147 155 153 151 144 145 157 220 282 56 148 174 216 168 247 203 280 68 77 101 92 114 104 93 129 210 226 256 245 263 254 238 240 279 45 54 11 8 319 323 9 307 297 295 289 278 273 271 259 250 237 243
135 137 137 147 150 141 135 146 198 234 115 125 189 224 209 237 68 50 14 113 113 141 109 119 96 351 135 277 235 276 250 239 227 244 322 23 43 25 0 329 319 276 268 301 309 301 293 283 267 269 228 198 221 237
121 115 138 139 138 138 147 184 186 76 32 122 229 246 95 44 121 94 37 44 209 95 77 357 130 217 223 226 210 217 240 237 269 11 352 340 331 337 341 316 277 286 285 295 303 295 292 291 263 265 221 198 210 223
162 144 151 136 136 161 206 339 89 60 163 193 212 327 359 63 37 101 152 215 119 142 199 184 226 226 232 223 221 224 251 285 323 340 327 317 313 308 316 306 297 301 296 299 293 296 299 298 282 256 239 201 217 206
304 144 145 144 156 146 80 39 104 189 239 223 222 166 204 232 226 180 212 261 162 213 225 233 257 232 238 244 251 278 303 316 313 310 306 301 303 305 301 310 304 294 289 285 284 279 295 293 278 252 217 235 179 178
160 149 154 170 162 124 137 260 234 244 221 218 238 243 232 233 207 239 222 226 218 239 259 235 234 237 239 259 274 284 286 288 293 296 297 299 300 297 290 289 284 283 285 283 282 293 292 274 248 220 221 189 202 190
132 144 165 182 212 123 126 158 287 273 262 197 197 226 226 221 235 191 221 230 231 216 219 229 243 254 270 274 272 282 294 297 298 294 290 293 294 293 289 287 286 288 287 289 313 290 280 251 209 230 240 202 189 168
138 146 157 188 281 326 328 159 217 250 263 245 218 219 232 217 223 201 227 196 223 228 237 238 250 253 258 266 273 277 278 279 278 283 288 289 290 289 287 283 281 282 282 280 270 279 231 232 204 201 171 141 107 107
109 112 80 68 149 27 273 204 235 180 222 236 234 227 253 230 228 217 224 224 236 237 239 249 263 270 269 267 273 276 281 291 289 286 284 285 287 289 289 292 298 294 290 268 262 251 225 203 188 138 137 170 146 160
104 93 111 128 178 220 247 201 214 202 216 194 200 221 220 214 226 218 242 231 239 240 251 260 265 267 272 280 280 278 276 278 280 283 286 285 284 287 293 291 284 277 280 273 237 223 193 166 140 139 179 170 176 207
115 159 176 198 205 215 150 198 213 222 218 224 227 236 240 227 237 243 257 251 259 262 257 262 265 269 269 265 265 269 274 285 295 288 289 298 292 285 292 286 271 270 262 253 210 164 134 152 140 175 195 190 201 225
169 189 208 200 196 199 196 194 197 215 227 220 242 249 241 199 238 256 265 266 267 268 265 269 275 273 272 274 272 273 281 297 295 299 297 298 294 291 290 283 282 262 192 145 137 161 179 163 183 203 201 203 224 208
211 187 201 209 181 199 191 215 212 220 235 237 242 244 207 249 241 250 254 263 249 251 231 233 238 265 262 262 280 284 300 357 312 286 295 293 279 298 300 302 296 248 202 190 196 207 198 194 196 204 207 209 216 222
219 199 194 228 215 185 232 233 262 241 227 225 225 231 234 231 236 248 260 265 283 278 299 248 246 275 287 289 290 316 347 325 278 288 293 288 283 280 283 291 292 283 192 190 200 205 204 196 199 204 215 201 197 204
231 233 204 195 223 219 232 236 230 228 230 240 243 237 230 223 241 248 339 65 46 340 302 291 285 281 282 290 312 310 305 293 291 283 273 265 251 255 261 268 280 307 310 186 216 206 207 200 198 203 194 203 188 152
228 217 210 231 217 221 237 243 239 238 247 253 248 245 250 257 273 281 282 295 124 203 254 265 276 287 289 289 286 284 276 274 279 292 300 302 306 289 224 238 242 228 205 201 213 211 201 180 182 186 169 134 109 122
227 199 231 232 232 241 239 236 258 254 238 242 274 281 275 267 266 269 274 238 231 240 252 263 289 298 286 289 297 294 271 243 232 285 302 302 306 317 315 278 249 225 206 194 149 109 115 118 116 110 127 148 179 195
234 212 237 238 246 252 257 254 232 231 254 259 253 255 260 273 280 258 287 299 272 285 273 272 269 246 269 282 298 313 320 62 13 337 316 294 289 302 327 37 61 65 75 89 111 122 117 125 139 130 136 165 139 112
213 230 243 253 258 256 170 247 245 246 248 247 246 238 253 247 257 122 36 344 278 257 247 36 328 317 10 349 341 56 39 31 19 1 358 352 7 23 30 48 57 71 80 78 70 94 100 35 64 98 119 151 125 120
239 251 259 266 270 270 253 227 241 252 240 244 250 247 247 233 239 93 96 32 12 17 12 349 332 308 355 16 19 76 88 87 66 41 33 34 30 23 16 10 30 48 51 66 69 64 56 35 349 34 120 99 106 89